GW3032 Weather Reports


time (UTC)temp
C
wind
direction
speed
KPH
gust
KPH
rain 1hr
cm
rain 24hr
cm
rain mn
cm
humidity
%
barometer
mb
20260510175946 15 22 6.4 16.1 0.00 0.00 0.00 35 1018.8
20260510175442 15 352 3.2 11.3 0.00 0.00 0.00 36 1018.8
20260510174937 15 260 3.2 4.8 0.00 0.00 0.00 35 1018.9
20260510174436 15 332 4.8 9.7 0.00 0.00 0.00 38 1018.8
20260510173932 15 325 4.8 12.9 0.00 0.00 0.00 37 1019.1
20260510173428 15 356 14.5 17.7 0.00 0.00 0.00 41 1018.9
20260510172924 15 313 3.2 8.0 0.00 0.00 0.00 43 1018.9
20260510172420 14 9 6.4 11.3 0.00 0.00 0.00 42 1018.8
20260510171916 15 333 3.2 12.9 0.00 0.00 0.00 40 1019.1
20260510171414 14 328 6.4 8.0 0.00 0.00 0.00 40 1018.9
20260510170910 15 29 3.2 11.3 0.00 0.00 0.00 39 1018.9
20260510170407 15 328 3.2 9.7 0.00 0.00 0.00 42 1019.1
20260510165902 14 344 1.6 4.8 0.00 0.00 0.00 45 1019.0
20260510165359 15 325 4.8 16.1 0.00 0.00 0.00 42 1018.9
20260510164856 15 304 6.4 14.5 0.00 0.00 0.00 44 1019.0
20260510164353 14 351 0.0 4.8 0.00 0.00 0.00 46 1019.0
20260510163853 14 6 3.2 11.3 0.00 0.00 0.00 44 1018.9
20260510163349 13 22 11.3 14.5 0.00 0.00 0.00 43 1018.8
20260510162844 14 34 8.0 12.9 0.00 0.00 0.00 43 1018.9
20260510162341 15 348 14.5 16.1 0.00 0.00 0.00 42 1018.8
20260510161836 13 319 4.8 11.3 0.00 0.00 0.00 49 1018.7
20260510161332 13 7 3.2 3.2 0.00 0.00 0.00 46 1018.6
20260510160824 13 325 1.6 4.8 0.00 0.00 0.00 52 1018.6
20260510160320 13 11 6.4 11.3 0.00 0.00 0.00 44 1018.7
20260510155814 13 29 4.8 12.9 0.00 0.00 0.00 46 1018.6
20260510155311 13 322 6.4 12.9 0.00 0.00 0.00 46 1018.6
20260510154807 13 343 6.4 12.9 0.00 0.00 0.00 49 1018.5
20260510154303 13 46 11.3 14.5 0.00 0.00 0.00 47 1018.4
20260510153758 12 321 3.2 8.0 0.00 0.00 0.00 56 1018.1
20260510153254 12 316 4.8 9.7 0.00 0.00 0.00 55 1018.3
20260510152751 13 282 3.2 4.8 0.00 0.00 0.00 55 1018.2
20260510152247 13 277 3.2 3.2 0.00 0.00 0.00 59 1018.0
20260510151744 12 30 3.2 8.0 0.00 0.00 0.00 54 1018.2
20260510151243 12 348 11.3 12.9 0.00 0.00 0.00 56 1018.1
20260510150737 12 359 4.8 8.0 0.00 0.00 0.00 57 1018.1
20260510150234 12 334 3.2 8.0 0.00 0.00 0.00 57 1018.1
20260510145724 12 350 4.8 4.8 0.00 0.00 0.00 56 1017.8
20260510145220 12 328 1.6 3.2 0.00 0.00 0.00 60 1017.7
20260510144717 11 349 1.6 11.3 0.00 0.00 0.00 56 1018.1
20260510144214 11 345 1.6 4.8 0.00 0.00 0.00 58 1018.0
20260510143708 11 333 1.6 4.8 0.00 0.00 0.00 56 1017.9
20260510143205 11 348 1.6 3.2 0.00 0.00 0.00 58 1018.0
20260510142701 11 1 3.2 11.3 0.00 0.00 0.00 55 1017.7
20260510142158 11 14 4.8 16.1 0.00 0.00 0.00 55 1017.7
20260510141655 10 355 1.6 8.0 0.00 0.00 0.00 58 1017.9
20260510141154 10 13 1.6 3.2 0.00 0.00 0.00 58 1017.8
20260510140650 10 347 4.8 11.3 0.00 0.00 0.00 58 1017.9
20260510140149 10 357 1.6 11.3 0.00 0.00 0.00 58 1017.9
20260510135644 10 3 4.8 8.0 0.00 0.00 0.00 60 1017.9
20260510135141 10 331 8.0 14.5 0.00 0.00 0.00 61 1017.8
20260510134638 11 313 3.2 11.3 0.00 0.00 0.00 65 1017.7
20260510134135 10 303 6.4 9.7 0.00 0.00 0.00 65 1017.8
20260510133631 10 351 0.0 4.8 0.00 0.00 0.00 67 1017.7
20260510133126 10 334 4.8 8.0 0.00 0.00 0.00 66 1017.6
20260510132624 10 333 3.2 8.0 0.00 0.00 0.00 70 1017.7
20260510132121 10 313 1.6 3.2 0.00 0.00 0.00 70 1017.6
20260510131618 10 294 0.0 1.6 0.00 0.00 0.00 73 1017.6
20260510131115 10 326 1.6 3.2 0.00 0.00 0.00 72 1017.3
20260510130611 9 330 1.6 3.2 0.00 0.00 0.00 74 1017.2
20260510130109 9 280 1.6 3.2 0.00 0.00 0.00 75 1017.3
20260510125605 9 313 4.8 8.0 0.00 0.00 0.00 74 1017.1
20260510125101 9 12 3.2 12.9 0.00 0.00 0.00 75 1016.9
20260510124558 9 20 3.2 11.3 0.00 0.00 0.00 74 1017.0
20260510124055 9 349 4.8 11.3 0.00 0.00 0.00 77 1016.9
20260510123550 8 14 0.0 1.6 0.00 0.00 0.00 81 1016.7
20260510123047 8 331 0.0 3.2 0.00 0.00 0.00 78 1016.9
20260510122543 8 346 1.6 4.8 0.00 0.00 0.00 81 1016.6
20260510122039 8 348 3.2 11.3 0.00 0.00 0.00 82 1016.5
20260510121536 8 326 3.2 8.0 0.00 0.00 0.00 83 1016.3
20260510121033 8 351 3.2 3.2 0.00 0.00 0.00 84 1016.4
20260510120531 8 2 6.4 8.0 0.00 0.00 0.00 84 1016.3
20260510120026 8 348 3.2 8.0 0.00 0.00 0.00 85 1016.4
20260510115523 8 16 4.8 8.0 0.00 0.00 0.00 84 1016.1
20260510115020 8 329 1.6 4.8 0.00 0.00 0.00 85 1016.0
20260510114516 8 355 1.6 3.2 0.00 0.00 0.00 85 1016.1
20260510114012 8 334 4.8 8.0 0.00 0.00 0.00 85 1015.9
20260510113507 8 297 6.4 9.7 0.00 0.00 0.00 86 1015.7
20260510113005 8 337 3.2 3.2 0.00 0.00 0.00 87 1015.4
20260510112502 8 1 4.8 4.8 0.00 0.00 0.00 88 1015.4
20260510111958 8 343 4.8 4.8 0.00 0.00 0.00 88 1015.2
20260510111454 8 352 3.2 3.2 0.00 0.00 0.00 89 1015.2
20260510110950 8 342 0.0 3.2 0.00 0.00 0.00 89 1015.1
20260510110442 8 336 3.2 4.8 0.00 0.00 0.00 90 1015.1
20260510105938 8 9 4.8 8.0 0.00 0.00 0.00 89 1015.0
20260510105433 8 326 4.8 4.8 0.00 0.00 0.00 89 1014.9
20260510104929 8 332 3.2 8.0 0.00 0.00 0.00 89 1014.6
20260510104425 8 10 3.2 4.8 0.00 0.00 0.00 89 1014.6
20260510103921 8 357 3.2 3.2 0.00 0.00 0.00 90 1014.5
20260510103414 8 358 1.6 3.2 0.00 0.00 0.00 90 1014.4
20260510102908 8 341 4.8 4.8 0.00 0.00 0.00 91 1014.3
20260510102404 8 348 3.2 3.2 0.00 0.00 0.00 91 1013.8
20260510101901 8 2 3.2 4.8 0.00 0.00 0.00 91 1013.8
20260510101359 8 358 1.6 3.2 0.00 0.00 0.00 90 1013.7
20260510100856 8 354 1.6 4.8 0.00 0.00 0.00 91 1013.8
20260510100353 8 355 4.8 4.8 0.00 0.00 0.00 91 1013.7
20260510095850 8 355 1.6 3.2 0.00 0.00 0.00 93 1013.7
20260510095344 8 337 1.6 3.2 0.00 0.00 0.00 95 1013.4
20260510094839 7 326 1.6 3.2 0.00 0.00 0.00 97 1013.5
20260510094334 7 323 1.6 1.6 0.00 0.00 0.00 99 1013.5
20260510093831 7 307 0.0 0.0 0.00 0.00 0.00 99 1013.5
20260510093326 7 307 0.0 0.0 0.00 0.00 0.00 99 1013.6
20260510092823 7 307 0.0 0.0 0.00 0.00 0.00 99 1013.6
20260510092319 7 307 0.0 0.0 0.00 0.00 0.00 99 1013.4
20260510091815 7 307 0.0 0.0 0.00 0.00 0.00 99 1013.3
20260510091312 7 307 0.0 0.0 0.00 0.00 0.00 99 1013.2
20260510090809 7 307 0.0 0.0 0.00 0.00 0.00 99 1013.1
20260510090306 7 307 0.0 0.0 0.00 0.00 0.00 99 1013.0
20260510085801 7 307 0.0 0.0 0.00 0.00 0.00 99 1012.9
20260510085300 7 307 0.0 0.0 0.00 0.00 0.00 99 1013.0
20260510084756 7 307 0.0 0.0 0.00 0.00 0.00 99 1012.8
20260510084254 7 308 1.6 1.6 0.00 0.00 0.00 99 1012.7
20260510083750 7 307 0.0 1.6 0.00 0.00 0.00 99 1012.7
20260510083247 7 304 1.6 1.6 0.00 0.00 0.00 99 1012.6
20260510082743 7 303 0.0 1.6 0.00 0.00 0.00 99 1012.6
20260510082240 7 304 1.6 1.6 0.00 0.00 0.00 99 1012.5
20260510081739 7 303 0.0 0.0 0.00 0.00 0.00 99 1012.4
20260510081235 7 303 0.0 0.0 0.00 0.00 0.00 99 1012.4
20260510080730 7 303 0.0 0.0 0.00 0.00 0.00 99 1012.5
20260510080226 7 303 0.0 0.0 0.00 0.00 0.00 99 1012.4
20260510075723 7 303 0.0 0.0 0.00 0.00 0.00 98 1012.1
20260510075221 7 303 1.6 1.6 0.00 0.00 0.00 98 1012.1
20260510074718 8 303 0.0 1.6 0.00 0.00 0.00 97 1012.1
20260510074214 8 303 0.0 0.0 0.00 0.00 0.00 97 1012.0
20260510073711 8 303 0.0 0.0 0.00 0.00 0.00 96 1011.7
20260510073206 8 303 0.0 0.0 0.00 0.00 0.00 96 1011.6
20260510072702 8 303 0.0 0.0 0.00 0.00 0.00 94 1011.5
20260510072159 8 303 0.0 0.0 0.00 0.00 0.00 91 1011.5
20260510071656 8 303 0.0 0.0 0.00 0.00 0.00 92 1011.5
20260510071153 8 304 0.0 1.6 0.00 0.00 0.00 91 1011.4
20260510070650 8 304 0.0 1.6 0.00 0.00 0.00 90 1011.6
20260510070148 8 316 0.0 3.2 0.00 0.00 0.00 89 1011.4
20260510065643 8 329 1.6 3.2 0.00 0.00 0.00 90 1011.4
20260510065139 9 329 3.2 4.8 0.00 0.00 0.00 89 1011.2
20260510064636 9 312 4.8 4.8 0.00 0.00 0.00 91 1011.4
20260510064133 9 330 4.8 9.7 0.00 0.00 0.00 89 1011.2
20260510063630 9 20 3.2 8.0 0.00 0.00 0.00 92 1011.1
20260510063127 9 346 6.4 12.9 0.00 0.00 0.00 94 1010.9
20260510062623 9 335 1.6 4.8 0.00 0.00 0.00 97 1010.7
20260510062119 10 346 9.7 12.9 0.00 0.00 0.00 99 1010.9
20260510061615 10 346 3.2 11.3 0.00 0.00 0.00 99 1010.8
20260510061112 10 359 4.8 11.3 0.00 0.00 0.00 99 1010.6
20260510060608 11 12 3.2 12.9 0.00 0.00 0.00 99 1010.6
20260510060104 11 356 4.8 8.0 0.00 0.00 0.00 99 1010.5
20260510055559 11 297 4.8 9.7 0.00 0.00 0.00 99 1010.4
20260510055058 11 321 0.0 1.6 0.00 0.00 0.00 99 1010.3
20260510054549 11 290 0.0 1.6 0.00 0.00 0.00 99 1010.0
20260510054043 11 285 0.0 0.0 0.00 0.00 0.00 99 1009.9
20260510053538 12 275 0.0 0.0 0.00 0.00 0.00 99 1009.9
20260510053035 12 275 0.0 1.6 0.00 0.00 0.00 99 1009.8
20260510052531 12 271 0.0 1.6 0.00 0.00 0.00 99 1009.8
20260510052028 12 358 1.6 3.2 0.00 0.00 0.00 99 1009.6
20260510051523 12 310 0.0 1.6 0.00 0.00 0.00 99 1009.6
20260510051020 12 283 1.6 4.8 0.00 0.00 0.00 99 1009.4
20260510050518 12 237 1.6 8.0 0.00 0.00 0.00 99 1009.5
20260510050014 11 354 8.0 9.7 0.00 0.00 0.00 99 1009.4
20260510045512 11 347 4.8 4.8 0.00 0.00 0.00 99 1009.2
20260510045007 11 288 0.0 1.6 0.00 0.00 0.00 99 1008.8
20260510044504 11 272 0.0 1.6 0.00 0.00 0.00 99 1008.8
20260510044002 11 273 0.0 1.6 0.00 0.00 0.00 99 1008.8
20260510043457 11 279 0.0 1.6 0.00 0.00 0.00 99 1008.7
20260510042956 11 227 1.6 1.6 0.00 0.00 0.00 99 1008.5
20260510042452 11 302 0.0 1.6 0.00 0.00 0.00 99 1008.5
20260510041947 11 271 0.0 0.0 0.00 0.00 0.00 99 1008.5
20260510041444 11 261 0.0 1.6 0.00 0.00 0.00 99 1008.5
20260510040942 11 279 0.0 0.0 0.00 0.00 0.00 99 1008.5
20260510040439 11 257 1.6 1.6 0.00 0.00 0.00 99 1008.5
20260510035934 11 266 0.0 0.0 0.00 1.70 1.70 99 1008.4
20260510035430 11 266 0.0 0.0 0.00 1.70 1.70 99 1008.5
20260510034925 12 265 0.0 1.6 0.00 1.70 1.70 99 1008.4
20260510034424 11 270 0.0 1.6 0.00 1.70 1.70 99 1008.3
20260510033920 12 271 0.0 0.0 0.00 1.70 1.70 99 1008.4
20260510033416 12 271 0.0 0.0 0.00 1.70 1.70 99 1008.3
20260510032913 12 270 0.0 0.0 0.00 1.70 1.70 99 1008.4
20260510032410 12 270 0.0 0.0 0.00 1.70 1.70 99 1008.6
20260510031905 12 271 0.0 1.6 0.00 1.70 1.70 99 1008.3
20260510031400 12 271 0.0 0.0 0.00 1.70 1.70 99 1008.4
20260510030855 12 270 0.0 1.6 0.00 1.70 1.70 99 1008.4
20260510030351 12 302 1.6 4.8 1.37 1.70 1.70 98 1008.0
20260510025849 12 221 1.6 9.7 2.11 1.70 1.70 99 1008.0
20260510025347 12 304 1.6 1.6 0.61 1.42 1.42 99 1008.5
20260510024843 12 347 3.2 4.8 0.18 1.35 1.35 99 1008.5
20260510024340 12 333 1.6 4.8 0.00 1.32 1.32 99 1008.3
20260510023836 12 231 1.6 3.2 0.00 1.32 1.32 99 1008.1
20260510023333 12 271 1.6 1.6 0.00 1.32 1.32 99 1008.3
20260510022830 12 292 1.6 4.8 0.00 1.32 1.32 99 1008.6
20260510022329 12 285 0.0 0.0 0.00 1.32 1.32 99 1008.5
20260510021828 12 286 0.0 1.6 0.00 1.32 1.32 99 1008.4
20260510021327 12 277 1.6 1.6 0.00 1.32 1.32 99 1008.6
20260510020822 12 264 0.0 1.6 0.00 1.32 1.32 99 1008.0
20260510020317 12 281 0.0 0.0 0.00 1.32 1.32 99 1008.0
20260510015813 12 196 1.6 3.2 0.00 1.32 1.32 99 1008.5
20260510015310 12 326 1.6 3.2 0.00 1.32 1.32 99 1008.8
20260510014805 12 290 3.2 3.2 0.00 1.32 1.32 99 1008.1
20260510014302 12 263 0.0 0.0 0.00 1.32 1.32 99 1007.6
20260510013758 12 263 0.0 1.6 0.00 1.32 1.32 99 1007.6
20260510013254 12 273 0.0 1.6 0.00 1.32 1.32 99 1007.4
20260510012749 12 273 0.0 1.6 0.00 1.32 1.32 99 1007.5
20260510012244 12 273 0.0 1.6 0.00 1.32 1.32 99 1007.2
20260510011744 12 273 0.0 1.6 0.00 1.32 1.32 99 1007.2
20260510011239 12 273 0.0 0.0 0.00 1.32 1.32 99 1007.5
20260510010737 12 274 0.0 0.0 0.00 1.32 1.32 99 1007.3
20260510010233 12 274 0.0 0.0 0.00 1.32 1.32 99 1007.2
20260510005730 12 274 0.0 1.6 0.00 1.32 1.32 99 1007.1
20260510005226 12 274 0.0 0.0 0.00 1.32 1.32 99 1007.2
20260510004724 12 265 0.0 1.6 0.00 1.32 1.32 99 1007.2
20260510004222 12 275 0.0 0.0 0.00 1.32 1.32 99 1007.0
20260510003720 12 271 0.0 3.2 0.00 1.32 1.32 99 1006.9
20260510003215 12 268 0.0 0.0 0.00 1.32 1.32 99 1006.9
20260510002714 12 320 3.2 3.2 0.00 1.32 1.32 99 1006.9
20260510002212 12 239 4.8 8.0 0.00 1.32 1.32 99 1007.2
20260510001709 12 267 0.0 1.6 0.00 1.32 1.32 99 1007.1
20260510001207 13 193 1.6 3.2 0.00 1.32 1.32 99 1007.1
20260510000702 13 260 0.0 9.7 0.00 1.32 1.32 99 1007.1
20260510000200 12 284 4.8 8.0 0.00 1.32 1.32 99 1007.0
20260509235656 12 281 0.0 4.8 0.00 1.32 1.32 99 1006.9
20260509235153 12 285 6.4 8.0 0.00 1.32 1.32 99 1007.1
20260509234649 12 277 1.6 9.7 0.00 1.32 1.32 99 1007.2
20260509234146 12 266 4.8 4.8 0.13 1.32 1.32 99 1007.1
20260509233644 12 28 1.6 4.8 0.30 1.32 1.32 99 1007.2
20260509233141 12 289 1.6 16.1 0.30 1.30 1.30 99 1007.3
20260509232637 12 272 1.6 11.3 0.30 1.27 1.27 99 1007.2
20260509232134 12 247 3.2 3.2 0.30 1.24 1.24 99 1006.9
20260509231631 12 6 1.6 4.8 0.30 1.22 1.22 99 1007.1
20260509231128 12 48 1.6 9.7 0.66 1.19 1.19 99 1007.3
20260509230625 12 120 4.8 8.0 2.29 1.14 1.14 99 1007.2
20260509230122 13 236 4.8 14.5 4.67 1.09 1.09 98 1007.3
20260509225618 14 56 14.5 29.0 2.39 0.66 0.66 93 1007.0
20260509225114 16 341 6.4 14.5 0.18 0.25 0.25 82 1006.9
20260509224609 17 355 8.0 11.3 0.18 0.25 0.25 71 1006.0
20260509224107 17 287 8.0 9.7 0.00 0.23 0.23 72 1005.6
20260509223603 19 181 4.8 17.7 0.00 0.23 0.23 69 1005.3
20260509223101 20 213 6.4 12.9 0.00 0.23 0.23 62 1004.9
20260509222557 20 207 6.4 9.7 0.00 0.23 0.23 59 1004.8
20260509222053 21 212 3.2 4.8 0.00 0.23 0.23 59 1004.5
20260509221549 21 216 8.0 11.3 0.00 0.23 0.23 57 1004.6
20260509221045 21 230 11.3 16.1 0.00 0.23 0.23 56 1004.6
20260509220541 21 99 3.2 9.7 0.00 0.23 0.23 56 1004.8
20260509220037 21 257 1.6 11.3 0.00 0.23 0.23 56 1004.6
20260509215532 21 237 3.2 4.8 0.00 0.23 0.23 54 1004.5
20260509215030 21 241 4.8 11.3 0.00 0.23 0.23 54 1004.5
20260509214527 22 194 4.8 9.7 0.00 0.23 0.23 54 1004.7
20260509214024 22 26 4.8 9.7 0.00 0.23 0.23 53 1004.6
20260509213520 22 238 8.0 16.1 0.00 0.23 0.23 54 1004.7
20260509213017 22 180 9.7 16.1 0.00 0.23 0.23 53 1004.7
20260509212514 22 207 6.4 11.3 0.00 0.23 0.23 53 1004.6
20260509212011 23 230 6.4 14.5 0.00 0.23 0.23 55 1004.7
20260509211506 22 241 1.6 11.3 0.00 0.23 0.23 56 1004.4
20260509211003 22 183 3.2 14.5 0.00 0.23 0.23 58 1004.6
20260509210500 22 312 3.2 12.9 0.00 0.23 0.23 56 1004.7
20260509205956 22 197 3.2 11.3 0.00 0.23 0.23 57 1004.7
20260509205451 22 216 4.8 8.0 0.00 0.23 0.23 57 1004.9
20260509204946 22 216 4.8 8.0 0.00 0.23 0.23 57 1005.2
20260509204443 22 154 8.0 12.9 0.00 0.23 0.23 56 1005.3
20260509203940 22 231 4.8 9.7 0.00 0.23 0.23 57 1005.4
20260509203435 22 282 6.4 11.3 0.00 0.23 0.23 57 1005.3
20260509202934 22 213 3.2 9.7 0.00 0.23 0.23 58 1005.3
20260509202429 22 223 3.2 9.7 0.00 0.23 0.23 58 1005.3
20260509201924 22 209 6.4 14.5 0.00 0.23 0.23 58 1005.4
20260509201420 22 244 4.8 9.7 0.00 0.23 0.23 56 1005.5
20260509200917 22 230 8.0 11.3 0.00 0.23 0.23 57 1005.5
20260509200417 21 237 4.8 9.7 0.00 0.23 0.23 60 1005.7
20260509195913 22 142 3.2 9.7 0.00 0.23 0.23 60 1005.8
20260509195408 22 245 6.4 9.7 0.00 0.23 0.23 58 1005.9
20260509194903 21 298 6.4 12.9 0.00 0.23 0.23 61 1006.3
20260509194359 21 279 9.7 14.5 0.00 0.23 0.23 58 1006.0
20260509193855 22 175 11.3 14.5 0.00 0.23 0.23 57 1006.1
20260509193350 22 235 1.6 8.0 0.00 0.23 0.23 61 1006.1
20260509192846 22 246 1.6 4.8 0.00 0.23 0.23 60 1006.2
20260509192342 21 237 1.6 4.8 0.00 0.23 0.23 61 1006.3
20260509191838 21 204 3.2 9.7 0.00 0.23 0.23 63 1006.2
20260509191333 21 169 6.4 11.3 0.00 0.23 0.23 63 1006.6
20260509190830 21 290 8.0 11.3 0.00 0.23 0.23 61 1006.6
20260509190327 21 139 1.6 9.7 0.00 0.23 0.23 63 1006.6
20260509185824 21 239 4.8 9.7 0.00 0.23 0.23 63 1006.6
20260509185321 21 213 6.4 11.3 0.00 0.23 0.23 62 1006.7
20260509184818 21 195 4.8 11.3 0.00 0.23 0.23 65 1007.0
20260509184310 20 232 6.4 12.9 0.00 0.23 0.23 63 1007.0
20260509183806 21 225 4.8 11.3 0.00 0.23 0.23 64 1007.1
20260509183301 20 333 8.0 9.7 0.00 0.23 0.23 64 1006.9
20260509182757 20 293 4.8 8.0 0.00 0.23 0.23 67 1006.9
20260509182254 20 268 3.2 4.8 0.00 0.23 0.23 67 1007.1
20260509181751 19 188 6.4 8.0 0.00 0.23 0.23 65 1007.0
20260509181249 20 201 3.2 14.5 0.00 0.23 0.23 67 1007.1
20260509180746 20 237 1.6 4.8 0.00 0.23 0.23 69 1006.8